Change the Weather History Date:

Monday, October 10, 2011

  Actual Average (KRUG) Record (KRUG)
Temperature  
Mean Temperature 50 °F -  
Max Temperature 53 °F 57 °F 85 °F (1955)
Min Temperature 46 °F 34 °F 10 °F (1987)
Degree Days  
Heating Degree Days 16    
Moisture  
Dew Point 49 °F    
Average Humidity 100    
Maximum Humidity 100    
Minimum Humidity 100    
Precipitation  
Precipitation 0.13 in - - ()
Sea Level Pressure  
Sea Level Pressure 29.74 in    
Wind  
Wind Speed 13 mph (SSW)    
Max Wind Speed 21 mph    
Max Gust Speed 28 mph    
Visibility 9 miles    
Events Rain    
Averages and records for this station are not official NWS values.
T = Trace of Precipitation, MM = Missing Value Source: NWS Daily Summary

Daily Weather History Graph

Daily Weather History Graph

Search for Another Location

Airport or City:

Trip Planner

Search our weather history database for the weather conditions in past years. The results will help you decide how hot, cold, wet, or windy it might be!

Date:

Astronomy

Oct. 10, 2011 Rise Set
Actual Time 7:51 AM CDT 6:59 PM CDT
Civil Twilight 7:19 AM CDT 7:30 PM CDT
Nautical Twilight 6:42 AM CDT 8:07 PM CDT
Astronomical Twilight 6:05 AM CDT 8:43 PM CDT
Moon 6:03 PM CDT (10/10) 6:31 AM CDT (10/10)
Length of Visible Light 12h 11m
Length of Day
11h 08m
Waxing Gibbous, 98% of the Moon is Illuminated
Oct 10
Waxing Gibbous
Oct 11
Full
Oct 19
Last Quarter
Oct 26
New
Nov 2
First Quarter

Hourly Weather History & Observations

Time (CDT) Temp. Windchill Dew Point Humidity Pressure Visibility Wind Dir Wind Speed Gust Speed Precip Events Conditions
12:15 AM 46.4 °F 41.1 °F 46.4 °F 100% 29.99 in 5.0 mi East 11.5 mph 16.1 mph N/A Rain Light Rain
12:35 AM 46.4 °F 41.9 °F 46.4 °F 100% 29.98 in 7.0 mi East 9.2 mph - 0.01 in Rain Light Rain
12:55 AM 46.4 °F 41.1 °F 46.4 °F 100% 29.97 in 5.0 mi East 11.5 mph - 0.03 in Rain Light Rain
1:15 AM 46.4 °F 42.9 °F 46.4 °F 100% 29.95 in 8.0 mi East 6.9 mph - 0.01 in Rain Light Rain
5:35 AM - - - N/A% 29.80 in - ESE 13.8 mph - N/A   Unknown
5:55 AM 50.0 °F - 50.0 °F 100% 29.79 in 10.0 mi ESE 15.0 mph - N/A Rain Light Rain
7:35 AM 51.8 °F - 51.8 °F 100% 29.74 in - SE 10.4 mph - N/A   Unknown
8:55 AM 53.6 °F - 53.6 °F 100% 29.71 in - SSE 15.0 mph - N/A   Unknown
9:35 AM 53.6 °F - 53.6 °F 100% 29.70 in 0.8 mi SSW 13.8 mph 20.7 mph N/A Rain Light Rain
9:55 AM 51.8 °F - 51.8 °F 100% 29.72 in 3.0 mi SSW 17.3 mph 24.2 mph N/A   Overcast
10:35 AM 48.2 °F - 48.2 °F 100% 29.73 in 1.8 mi SW 19.6 mph 25.3 mph N/A   Overcast
10:55 AM 48.2 °F - 48.2 °F 100% 29.73 in 10.0 mi SW 19.6 mph 27.6 mph N/A   Overcast
11:15 AM 48.2 °F - 48.2 °F 100% 29.74 in 10.0 mi SW 20.7 mph 25.3 mph N/A   Overcast
11:35 AM 48.2 °F - 48.2 °F 100% 29.74 in 10.0 mi SW 20.7 mph 26.5 mph N/A   Overcast
11:55 AM 48.2 °F - 48.2 °F 100% 29.74 in 10.0 mi SW 13.8 mph 25.3 mph N/A   Overcast
12:15 PM 48.2 °F - 48.2 °F 100% 29.74 in 10.0 mi SSW 20.7 mph 26.5 mph N/A   Overcast
12:35 PM 48.2 °F - 48.2 °F 100% 29.75 in 10.0 mi SW 16.1 mph 24.2 mph N/A   Overcast
12:55 PM 48.2 °F - 48.2 °F 100% 29.75 in 10.0 mi SSW 16.1 mph 24.2 mph N/A   Overcast
1:15 PM 48.2 °F - 48.2 °F 100% 29.75 in 10.0 mi SW 12.7 mph 21.9 mph N/A   Overcast
1:35 PM 50.0 °F - 50.0 °F 100% 29.74 in 10.0 mi SSW 16.1 mph - N/A   Overcast
1:55 PM 50.0 °F - 50.0 °F 100% 29.74 in 10.0 mi SSW 13.8 mph 19.6 mph N/A   Overcast
2:15 PM 50.0 °F - 50.0 °F 100% 29.74 in 10.0 mi SW 15.0 mph - N/A   Overcast
2:35 PM 50.0 °F - 50.0 °F 100% 29.73 in 9.0 mi SSW 12.7 mph - N/A   Mostly Cloudy
2:55 PM 50.0 °F - 50.0 °F 100% 29.73 in 4.0 mi SSW 12.7 mph - N/A   Mist
3:15 PM 50.0 °F - 50.0 °F 100% 29.73 in 10.0 mi SSW 13.8 mph - N/A   Unknown
4:35 PM 50.0 °F - 50.0 °F 100% 29.72 in 10.0 mi SW 10.4 mph - N/A Rain Light Rain
4:55 PM 50.0 °F - 50.0 °F 100% 29.71 in 10.0 mi SSW 10.4 mph - 0.01 in Rain Light Rain
5:15 PM 50.0 °F - 50.0 °F 100% 29.71 in 10.0 mi SSW 11.5 mph - N/A Rain Light Rain
5:35 PM 50.0 °F - 50.0 °F 100% 29.71 in 10.0 mi SSW 9.2 mph - N/A Rain Light Rain
5:55 PM 50.0 °F - 50.0 °F 100% 29.70 in 10.0 mi SSW 12.7 mph - 0.01 in Rain Light Rain
6:15 PM 50.0 °F - 50.0 °F 100% 29.70 in 5.0 mi SW 12.7 mph - N/A Rain Light Rain
6:35 PM 48.2 °F - 48.2 °F 100% 29.70 in 5.0 mi SW 10.4 mph - 0.01 in Rain Light Rain
6:55 PM 48.2 °F - 48.2 °F 100% 29.70 in 5.0 mi SW 12.7 mph - 0.02 in Rain Light Rain
7:15 PM 48.2 °F - 48.2 °F 100% 29.70 in 9.0 mi SW 15.0 mph 20.7 mph N/A Rain Light Rain
7:35 PM 48.2 °F - 48.2 °F 100% 29.70 in 10.0 mi SW 13.8 mph - N/A Rain Light Rain
7:55 PM 48.2 °F - 48.2 °F 100% 29.71 in 10.0 mi WSW 12.7 mph - 0.01 in Rain Light Rain
8:15 PM 48.2 °F - 48.2 °F 100% 29.70 in 10.0 mi WSW 11.5 mph - N/A Rain Light Rain
8:35 PM 46.4 °F 41.1 °F 46.4 °F 100% 29.71 in 10.0 mi SW 11.5 mph - N/A Rain Light Rain
8:55 PM 46.4 °F 41.5 °F 46.4 °F 100% 29.70 in 10.0 mi SW 10.4 mph - 0.01 in Rain Light Rain
9:15 PM 46.4 °F 40.7 °F 46.4 °F 100% 29.70 in 10.0 mi SW 12.7 mph - N/A Rain Light Rain
9:35 PM 46.4 °F 41.1 °F 46.4 °F 100% 29.70 in 10.0 mi SW 11.5 mph - N/A Rain Light Rain
9:55 PM 46.4 °F 42.4 °F 46.4 °F 100% 29.70 in 10.0 mi SW 8.1 mph - 0.01 in Rain Light Rain
10:35 PM 46.4 °F 42.9 °F 46.4 °F 100% 29.70 in 10.0 mi SW 6.9 mph - N/A Rain Light Rain
10:55 PM 46.4 °F 44.3 °F 46.4 °F 100% 29.69 in 10.0 mi SW 4.6 mph - 0.01 in Rain Light Rain
11:15 PM 46.4 °F 43.5 °F 46.4 °F 100% 29.68 in 10.0 mi South 5.8 mph - N/A Rain Light Rain
11:35 PM 46.4 °F 43.5 °F 46.4 °F 100% 29.68 in 10.0 mi South 5.8 mph - N/A Rain Light Rain
11:55 PM 46.4 °F 43.5 °F 46.4 °F 100% 29.68 in 10.0 mi South 5.8 mph - 0.01 in Rain Light Rain